TimeCEST,TemperatureF,Dew PointF,Humidity,Sea Level PressureIn,VisibilityMPH,Wind Direction,Wind SpeedMPH,Gust SpeedMPH,PrecipitationIn,Events,Conditions,WindDirDegrees,DateUTC
12:55 AM,62.6,59.0,88,29.89,6.2,NW,9.2,-,N/A,,Partly Cloudy,310,2012-10-24 22:55:00
1:55 AM,62.6,59.0,88,29.89,6.2,NW,12.7,-,N/A,,Partly Cloudy,310,2012-10-24 23:55:00
2:00 AM,62,58,84,29.91,12,NW,12.7,,,,Scattered Clouds,310,2012-10-25 00:00:00
2:55 AM,60.8,57.2,88,29.89,6.2,NW,10.4,-,N/A,,Partly Cloudy,320,2012-10-25 00:55:00
3:55 AM,60.8,57.2,88,29.89,6.2,NW,11.5,-,N/A,,Partly Cloudy,310,2012-10-25 01:55:00
4:55 AM,60.8,57.2,88,29.89,6.2,NW,6.9,-,N/A,,Partly Cloudy,310,2012-10-25 02:55:00
5:55 AM,60.8,57.2,88,29.89,6.2,NW,15.0,-,N/A,,Partly Cloudy,310,2012-10-25 03:55:00
6:55 AM,60.8,57.2,88,29.89,6.2,NW,11.5,-,N/A,,Scattered Clouds,310,2012-10-25 04:55:00
7:55 AM,60.8,57.2,88,29.89,6.2,NW,10.4,-,N/A,,Scattered Clouds,310,2012-10-25 05:55:00
8:00 AM,61,56,80,29.91,12,NW,10.4,,,,Partly Cloudy,310,2012-10-25 06:00:00
8:55 AM,60.8,55.4,82,29.89,6.2,NW,9.2,-,N/A,,Partly Cloudy,320,2012-10-25 06:55:00
9:55 AM,62.6,57.2,82,29.92,6.2,NW,11.5,-,N/A,,Partly Cloudy,310,2012-10-25 07:55:00
10:55 AM,71.6,62.6,73,29.92,6.2,NE,5.8,-,N/A,,Partly Cloudy,40,2012-10-25 08:55:00
11:55 AM,71.6,62.6,73,29.92,6.2,NE,4.6,-,N/A,,Partly Cloudy,40,2012-10-25 09:55:00
12:55 PM,73.4,64.4,73,29.92,6.2,East,8.1,-,N/A,,Partly Cloudy,90,2012-10-25 10:55:00
1:55 PM,71.6,64.4,78,29.89,6.2,East,10.4,-,N/A,,Partly Cloudy,90,2012-10-25 11:55:00
2:00 PM,72,64,71,29.89,12,East,10.4,,,,Scattered Clouds,90,2012-10-25 12:00:00
3:55 PM,71.6,62.6,73,29.86,6.2,SE,5.8,-,N/A,,Partly Cloudy,130,2012-10-25 13:55:00
4:55 PM,73.4,62.6,69,29.86,6.2,SSE,3.5,-,N/A,,Partly Cloudy,160,2012-10-25 14:55:00
5:55 PM,71.6,64.4,78,29.86,6.2,SSE,3.5,-,N/A,,Partly Cloudy,160,2012-10-25 15:55:00
6:55 PM,68.0,62.6,83,29.86,6.2,SSE,5.8,-,N/A,,Scattered Clouds,150,2012-10-25 16:55:00
7:55 PM,66.2,62.6,88,29.86,6.2,South,6.9,-,N/A,,Scattered Clouds,190,2012-10-25 17:55:00
8:00 PM,67,63,81,29.87,12,South,6.9,,,,Partly Cloudy,190,2012-10-25 18:00:00
8:55 PM,66.2,62.6,88,29.83,6.2,WSW,4.6,-,N/A,,Scattered Clouds,240,2012-10-25 18:55:00
9:55 PM,64.4,62.6,94,29.86,6.2,WNW,6.9,-,N/A,,Scattered Clouds,290,2012-10-25 19:55:00
10:55 PM,62.6,60.8,94,29.86,6.2,West,8.1,-,N/A,,Partly Cloudy,280,2012-10-25 20:55:00
11:55 PM,62.6,60.8,94,29.86,6.2,WNW,6.9,-,N/A,,Scattered Clouds,290,2012-10-25 21:55:00